Weather Roundup
Issued by NWS

Home | Current Version | Previous Version | Text Only | Print | Product List | Glossary On
Versions: 1 2 3 4 5 6 7 8 9 10 11 12 13 14 15 16 17 18 19 20 21 22 23 24 25 26 27 28 29 30 31 32 33 34 35 36 37 38 39 40 41 42 43 44 45 46 47 48 49 50
000
NZUS93 KARX 221110
HRRWXR

CURRENT HOURLY OBSERVATIONS ACROSS
MUCH OF THE UPPER MISSISSIPPI VALLEY
NATIONAL WEATHER SERVICE LA CROSSE WI
600 AM CDT SAT JUL 22 2017


...SOUTHEAST MINNESOTA...


CITY           SKY/WX    TMP DP  RH WIND       PRES   REMARKS
ROCHESTER      FOG       68  68 100 S3        29.79F VSB 1/4
ROCHESTER/MAYO CLOUDY    68  69 100 S7        29.80F VSB 1
WINONA         CLOUDY    70  68  94 CALM      29.77F
AUSTIN         CLOUDY    70  66  88 CALM      29.79F FOG
ALBERT LEA     FOG       70  68  94 SE6       29.77F VSB 3/4
DODGE CENTER   FOG       68  66  94 CALM      29.80F VSB 1/4
PRESTON        FOG       68  67  96 CALM      29.80F VSB 1/4
OWATONNA       CLOUDY    70  68  94 SE3       29.77F FOG
FARIBAULT      CLOUDY    70  68  94 S3        29.79S
$$

...ELSEWHERE IN MINNESOTA...


CITY           SKY/WX    TMP DP  RH WIND       PRES   REMARKS
MINNEAPOLIS    CLOUDY    71  65  81 SE6       29.80R
INTNL FALLS    MOCLDY    58  56  93 VRB3      29.82R
DULUTH         MOCLDY    58  58 100 CALM      29.84S
RED WING       CLOUDY    72  66  83 CALM      29.80R
REDWOOD FALLS  CLOUDY    68  66  93 NW3       29.78R
MANKATO        MOCLDY    68  67  96 SE3       29.77F
WORTHINGTON    CLOUDY    70  69  97 CALM      29.80R FOG
FAIRMONT       CLOUDY    70  70 100 S6        29.78F FOG
$$

...SOUTHWEST WISCONSIN...


CITY           SKY/WX    TMP DP  RH WIND       PRES   REMARKS
LA CROSSE      CLOUDY    73  70  90 S3        29.77S
PRAIRIE DU CHI CLOUDY    70  68  95 CALM      29.77S
BOSCOBEL       CLOUDY    71  69  93 CALM      29.78S FOG
LONE ROCK      FOG       68  67  96 E3        29.78S VSB 1
PLATTEVILLE    CLOUDY    69  69 100 W15G23    29.79F
FORT MC COY    CLOUDY    66  66  99 CALM      29.79S
CAMP DOUGLAS   FOG       67  67 100 CALM      29.80R VSB 1/4
MAUSTON-NEW LI FOG       67  67  99 CALM      29.80R VSB 1/2
VIROQUA        CLOUDY    68  68 100 S6        29.81R VSB 1/2
WIS DELLS      FOG       66  65  95 CALM      29.80S VSB 1
$$

...ELSEWHERE IN WISCONSIN...


CITY           SKY/WX    TMP DP  RH WIND       PRES   REMARKS
MILWAUKEE      CLOUDY    70  68  93 W5        29.78R
MADISON        DRZL/FOG  68  67  96 S6        29.79R VSB 1
GREEN BAY      MOCLDY    67  64  90 CALM      29.79F
EAU CLAIRE     CLOUDY    68  67  96 S3        29.79F
BLACK RVR FLS  CLOUDY    69  69 100 CALM      29.79S FOG
MEDFORD        CLOUDY    66  66  99 CALM      29.83S FOG
WAUSAU         CLOUDY    66  65  96 S8        29.81R FOG
WIS RAPIDS     FOG       66  66 100 CALM      29.83R VSB 1
MARSHFIELD     FOG       67  66  97 CALM      29.82R VSB 1/4
RICE LAKE      CLOUDY    63  62  97 CALM      29.84R FOG
$$

...NORTHEAST IOWA...


CITY           SKY/WX    TMP DP  RH WIND       PRES   REMARKS
WATERLOO       CLOUDY    70  68  93 W7        29.73F
DUBUQUE        TSTM      68  68 100 S21G28    29.77F
DECORAH        CLOUDY    70  70 100 CALM      29.78S FOG
MASON CITY     CLOUDY    70  69  97 N6        29.79F FOG
CHARLES CITY   FOG       72  72 100 CALM      29.78S VSB 1/4
OELWEIN          N/A    N/A N/A N/A MISG        N/A
$$

...ELSEWHERE IN IOWA...


CITY           SKY/WX    TMP DP  RH WIND       PRES   REMARKS
DES MOINES     CLOUDY    81  74  79 E7        29.77S THUNDER
IOWA CITY      CLOUDY    72  69  90 SE13      29.84F
FORT DODGE     CLOUDY    72  70  94 SE5       29.78F VSB 1/2
MARSHALLTOWN   CLOUDY    73  70  90 SE10      29.76F
CEDAR RAPIDS   CLOUDY    69  69 100 S14       29.76F
$$

...NORTHERN ILLINOIS...


CITY           SKY/WX    TMP DP  RH WIND       PRES   REMARKS
CHICAGO-OHARE  LGT RAIN  74  69  85 SW20G30   29.74F
CHICAGO-MIDWAY LGT RAIN  73  71  93 S15G23    29.77F
MOLINE         TSTM      69  67  93 S10       29.90R FOG
ROCKFORD       TSTM      72  67  84 SW16      29.80R
PEORIA         TSTM      71  70  96 NW10G20   29.97R FOG
$$

NOTE: "FAIR" INDICATES FEW OR NO CLOUDS BELOW 12,000 FEET WITH NO
SIGNIFICANT WEATHER AND/OR OBSTRUCTIONS TO VISIBILITY. WIND
SPEEDS ARE IN MILES-PER-HOUR.




USA.gov is the U.S. government's official web portal to all federal, state and local government web resources and services.